Home > Weather > Dietzenbach > Past weeks

Flag for Germany Weather for the Past 2 Weeks in Dietzenbach, Hesse, Germany

Now
59 °F

Partly sunny.


Feels Like: 55 °F
Forecast: 43 / 66 °F
Wind: 22 mph from North

Location: Frankfurt-M-Flughafen Airport

Current Time: May 1, 2016 at 2:11:15 PM

Latest Report: May 1, 2016 at 1:20 PM


Visibility: N/A

Pressure: 30.12 "Hg

Humidity: 51%

Dew Point: 41 °F

Location of DietzenbachLocation

Historic Weather in Dietzenbach — Graph

°F

Dietzenbach Temperature Yesterday

Maximum temperature yesterday: 61 °F (at 1:20 PM)
Minimum temperature yesterday: 36 °F (at 5:50 AM)
Average temperature yesterday: 50 °F

High & Low Weather Summary for the Past Weeks

 TemperatureHumidityPressure
High70 °F (Apr 21, 4:50 PM)100% (Apr 17, 2:50 AM)30.45 "Hg (Apr 17, 2:50 AM)
Low30 °F (Apr 24, 4:50 AM)22% (Apr 20, 5:50 PM)29.56 "Hg (Apr 26, 12:20 AM)
Average47 °F64%29.98 "Hg
* Reported Apr 16 12:20 PM — May 1 12:50 PM, Dietzenbach, Weather by CustomWeather, © 2016

Note: Actual official high and low records may vary slightly from our data, if they occured in-between our weather recording intervals... More about our weather records

Advertising

Dietzenbach Weather History for the Previous 24 Hours

Scroll right to see more
 ConditionsComfort  
Time TempWeatherWind HumidityBarometerVisibility
12:50 PM
Sun, May 1
59 °FPartly sunny.23 mph51%30.12 "HgN/A
12:20 PM57 °FPartly sunny.21 mph51%30.12 "HgN/A
11:50 AM55 °FPartly sunny.20 mph55%30.12 "HgN/A
11:20 AM55 °FPartly sunny.23 mph59%30.12 "HgN/A
10:50 AM54 °FScattered clouds.24 mph58%30.12 "HgN/A
10:20 AM52 °FPassing clouds.18 mph62%30.12 "HgN/A
9:50 AM50 °FPassing clouds.18 mph67%30.12 "HgN/A
8:50 AM48 °FPassing clouds.17 mph71%30.09 "HgN/A
8:20 AM48 °FPassing clouds.18 mph66%30.09 "HgN/A
7:50 AM48 °FPassing clouds.20 mph66%30.09 "HgN/A
7:20 AM46 °FScattered clouds.18 mph71%30.07 "HgN/A
6:20 AM46 °FPassing clouds.18 mph71%30.07 "HgN/A
5:50 AM46 °FPassing clouds.20 mph71%30.07 "HgN/A
5:20 AM46 °FPassing clouds.18 mph71%30.07 "HgN/A
4:20 AM46 °FPassing clouds.15 mph71%30.07 "HgN/A
3:50 AM46 °FPassing clouds.18 mph71%30.04 "HgN/A
3:20 AM48 °FPartly cloudy.17 mph66%30.04 "HgN/A
2:50 AM48 °FPartly cloudy.20 mph66%30.04 "HgN/A
2:20 AM48 °FPartly cloudy.13 mph66%30.04 "HgN/A
1:50 AM48 °FLight rain. Passing clouds.17 mph71%30.04 "HgN/A
1:20 AM48 °FLight rain. Passing clouds.12 mph76%30.04 "HgN/A
12:50 AM46 °FLight rain. Passing clouds.15 mph87%30.04 "HgN/A
12:20 AM46 °FLight rain. Passing clouds.9 mph87%30.04 "HgN/A
11:50 PM
Sat, Apr 30
48 °FLight rain. Passing clouds.16 mph76%30.04 "HgN/A
11:20 PM50 °FLight rain. Passing clouds.15 mph67%30.04 "HgN/A
10:50 PM50 °FLight rain. Partly cloudy.16 mph67%30.04 "HgN/A
10:20 PM52 °FLight rain. Passing clouds.16 mph62%30.01 "HgN/A
9:50 PM52 °FLight rain. Partly cloudy.17 mph62%30.01 "HgN/A
9:20 PM54 °FLight rain. Broken clouds.18 mph58%30.01 "HgN/A
8:50 PM55 °FLight rain. Broken clouds.16 mph55%30.01 "HgN/A
8:20 PM55 °FLight rain. Broken clouds.18 mph55%29.98 "HgN/A
7:50 PM55 °FBroken clouds.17 mph59%29.98 "HgN/A
7:20 PM55 °FPartly sunny.16 mph59%29.98 "HgN/A
6:50 PM57 °FScattered showers. Scattered clouds.18 mph55%29.98 "HgN/A
6:20 PM57 °FScattered showers. Scattered clouds.16 mph55%29.98 "HgN/A
5:50 PM59 °FPassing clouds.14 mph51%29.98 "HgN/A
5:20 PM59 °FPassing clouds.13 mph48%29.98 "HgN/A
4:50 PM61 °FPassing clouds.5 mph31%29.98 "HgN/A
4:20 PM61 °FSunny.5 mph34%29.98 "Hg10 mi
3:50 PM61 °FPassing clouds.7 mph34%29.98 "HgN/A
3:20 PM61 °FPassing clouds.8 mph36%29.98 "HgN/A
2:50 PM61 °FPassing clouds.5 mph34%29.98 "HgN/A
2:20 PM61 °FSunny.5 mph36%30.01 "Hg10 mi
Weather by CustomWeather, © 2016

See weather overviewHow to use our weather pages